Year,Month,Day,Hour,Minute,Value (Times are PST for temperature in C)
2011,07,09,00,00,11.20
2011,07,09,00,01,11.10
2011,07,09,00,02,11.10
2011,07,09,00,03,11.10
2011,07,09,00,04,11.10
2011,07,09,00,05,11.10
2011,07,09,00,06,11.10
2011,07,09,00,07,11.10
2011,07,09,00,08,11.10
2011,07,09,00,09,11.10
2011,07,09,00,10,11.10
2011,07,09,00,11,11.10
2011,07,09,00,12,11.10
2011,07,09,00,13,11.10
2011,07,09,00,14,11.00
2011,07,09,00,15,11.10
2011,07,09,00,16,11.00
2011,07,09,00,17,11.00
2011,07,09,00,18,11.00
2011,07,09,00,19,11.00
2011,07,09,00,20,11.00
2011,07,09,00,21,10.90
2011,07,09,00,22,10.90
2011,07,09,00,23,10.90
2011,07,09,00,24,10.90
2011,07,09,00,25,10.90
2011,07,09,00,26,10.90
2011,07,09,00,27,10.90
2011,07,09,00,28,10.90
2011,07,09,00,29,10.90
2011,07,09,00,30,10.90
2011,07,09,00,31,10.90
2011,07,09,00,32,10.90
2011,07,09,00,33,10.90
2011,07,09,00,34,10.80
2011,07,09,00,35,10.80
2011,07,09,00,36,10.80
2011,07,09,00,37,10.80
2011,07,09,00,38,10.80
2011,07,09,00,39,10.80
2011,07,09,00,40,10.80
2011,07,09,00,41,10.80
2011,07,09,00,42,10.80
2011,07,09,00,43,10.80
2011,07,09,00,44,10.80
2011,07,09,00,45,10.80
2011,07,09,00,46,10.80
2011,07,09,00,47,10.80
2011,07,09,00,48,10.80
2011,07,09,00,49,10.70
2011,07,09,00,50,10.70
2011,07,09,00,51,10.70
2011,07,09,00,52,10.70
2011,07,09,00,53,10.70
2011,07,09,00,54,10.70
2011,07,09,00,55,10.70
2011,07,09,00,56,10.70
2011,07,09,00,57,10.70
2011,07,09,00,58,10.70
2011,07,09,00,59,10.70
2011,07,09,01,00,10.70
2011,07,09,01,01,10.70
2011,07,09,01,02,10.70
2011,07,09,01,03,10.70
2011,07,09,01,04,10.60
2011,07,09,01,05,10.60
2011,07,09,01,06,10.60
2011,07,09,01,07,10.60
2011,07,09,01,08,10.60
2011,07,09,01,09,10.60
2011,07,09,01,10,10.60
2011,07,09,01,11,10.60
2011,07,09,01,12,10.60
2011,07,09,01,13,10.60
2011,07,09,01,14,10.60
2011,07,09,01,15,10.50
2011,07,09,01,16,10.50
2011,07,09,01,17,10.50
2011,07,09,01,18,10.50
2011,07,09,01,19,10.50
2011,07,09,01,20,10.40
2011,07,09,01,21,10.40
2011,07,09,01,22,10.40
2011,07,09,01,23,10.40
2011,07,09,01,24,10.40
2011,07,09,01,25,10.40
2011,07,09,01,26,10.40
2011,07,09,01,27,10.40
2011,07,09,01,28,10.40
2011,07,09,01,29,10.40
2011,07,09,01,30,10.40
2011,07,09,01,31,10.40
2011,07,09,01,32,10.40
2011,07,09,01,33,10.40
2011,07,09,01,34,10.40
2011,07,09,01,35,10.40
2011,07,09,01,36,10.30
2011,07,09,01,37,10.30
2011,07,09,01,38,10.30
2011,07,09,01,39,10.30
2011,07,09,01,40,10.30
2011,07,09,01,41,10.30
2011,07,09,01,42,10.20
2011,07,09,01,43,10.20
2011,07,09,01,44,10.20
2011,07,09,01,45,10.20
2011,07,09,01,46,10.20
2011,07,09,01,47,10.20
2011,07,09,01,48,10.20
2011,07,09,01,49,10.20
2011,07,09,01,50,10.20
2011,07,09,01,51,10.30
2011,07,09,01,52,10.30
2011,07,09,01,53,10.30
2011,07,09,01,54,10.30
2011,07,09,01,55,10.20
2011,07,09,01,56,10.20
2011,07,09,01,57,10.20
2011,07,09,01,58,10.20
2011,07,09,01,59,10.20
2011,07,09,02,00,10.20
2011,07,09,02,01,10.20
2011,07,09,02,02,10.20
2011,07,09,02,03,10.10
2011,07,09,02,04,10.10
2011,07,09,02,05,10.10
2011,07,09,02,06,10.10
2011,07,09,02,07,10.10
2011,07,09,02,08,10.10
2011,07,09,02,09,10.00
2011,07,09,02,10,10.00
2011,07,09,02,11,10.00
2011,07,09,02,12,9.90
2011,07,09,02,13,9.90
2011,07,09,02,14,9.90
2011,07,09,02,15,9.90
2011,07,09,02,16,9.90
2011,07,09,02,17,9.90
2011,07,09,02,18,9.90
2011,07,09,02,19,9.80
2011,07,09,02,20,9.80
2011,07,09,02,21,9.80
2011,07,09,02,22,9.80
2011,07,09,02,23,9.80
2011,07,09,02,24,9.80
2011,07,09,02,25,9.90
2011,07,09,02,26,9.90
2011,07,09,02,27,9.90
2011,07,09,02,28,9.90
2011,07,09,02,29,9.90
2011,07,09,02,30,9.90
2011,07,09,02,31,9.90
2011,07,09,02,32,9.90
2011,07,09,02,33,9.90
2011,07,09,02,34,9.90
2011,07,09,02,35,9.90
2011,07,09,02,36,9.90
2011,07,09,02,37,9.90
2011,07,09,02,38,9.90
2011,07,09,02,39,9.90
2011,07,09,02,40,9.80
2011,07,09,02,41,9.80
2011,07,09,02,42,9.80
2011,07,09,02,43,9.80
2011,07,09,02,44,9.80
2011,07,09,02,45,9.80
2011,07,09,02,46,9.80
2011,07,09,02,47,9.80
2011,07,09,02,48,9.80
2011,07,09,02,49,9.80
2011,07,09,02,50,9.80
2011,07,09,02,51,9.90
2011,07,09,02,52,9.80
2011,07,09,02,53,9.80
2011,07,09,02,54,9.80
2011,07,09,02,55,9.80
2011,07,09,02,56,9.80
2011,07,09,02,57,9.70
2011,07,09,02,58,9.70
2011,07,09,02,59,9.70
2011,07,09,03,00,9.70
2011,07,09,03,01,9.70
2011,07,09,03,02,9.70
2011,07,09,03,03,9.70
2011,07,09,03,06,9.60
2011,07,09,03,07,9.60
2011,07,09,03,08,9.60
2011,07,09,03,09,9.60
2011,07,09,03,10,9.60
2011,07,09,03,11,9.60
2011,07,09,03,12,9.60
2011,07,09,03,13,9.60
2011,07,09,03,14,9.60
2011,07,09,03,15,9.50
2011,07,09,03,16,9.50
2011,07,09,03,17,9.50
2011,07,09,03,18,9.50
2011,07,09,03,19,9.50
2011,07,09,03,20,9.40
2011,07,09,03,21,9.40
2011,07,09,03,22,9.40
2011,07,09,03,23,9.40
2011,07,09,03,24,9.40
2011,07,09,03,25,9.40
2011,07,09,03,26,9.40
2011,07,09,03,27,9.30
2011,07,09,03,28,9.30
2011,07,09,03,29,9.30
2011,07,09,03,30,9.30
2011,07,09,03,31,9.30
2011,07,09,03,32,9.30
2011,07,09,03,33,9.20
2011,07,09,03,34,9.20
2011,07,09,03,35,9.20
2011,07,09,03,36,9.20
2011,07,09,03,37,9.20
2011,07,09,03,38,9.10
2011,07,09,03,39,9.10
2011,07,09,03,40,9.10
2011,07,09,03,41,9.10
2011,07,09,03,42,9.10
2011,07,09,03,43,9.10
2011,07,09,03,44,9.10
2011,07,09,03,45,9.10
2011,07,09,03,46,9.10
2011,07,09,03,47,9.10
2011,07,09,03,48,9.10
2011,07,09,03,49,9.10
2011,07,09,03,50,9.10
2011,07,09,03,51,9.10
2011,07,09,03,52,9.10
2011,07,09,03,53,9.10
2011,07,09,03,54,9.00
2011,07,09,03,55,9.00
2011,07,09,03,56,9.00
2011,07,09,03,57,9.00
2011,07,09,03,58,9.00
2011,07,09,03,59,8.90
2011,07,09,04,00,8.90
2011,07,09,04,01,8.90
2011,07,09,04,02,8.90
2011,07,09,04,03,8.90
2011,07,09,04,04,8.90
2011,07,09,04,05,8.90
2011,07,09,04,06,8.90
2011,07,09,04,07,8.90
2011,07,09,04,08,8.90
2011,07,09,04,09,8.90
2011,07,09,04,10,8.90
2011,07,09,04,11,8.90
2011,07,09,04,12,8.90
2011,07,09,04,13,8.90
2011,07,09,04,14,8.90
2011,07,09,04,15,8.90
2011,07,09,04,16,8.90
2011,07,09,04,17,8.90
2011,07,09,04,18,8.80
2011,07,09,04,19,8.80
2011,07,09,04,20,8.80
2011,07,09,04,21,8.80
2011,07,09,04,22,8.80
2011,07,09,04,23,8.80
2011,07,09,04,24,8.80
2011,07,09,04,25,8.80
2011,07,09,04,26,8.80
2011,07,09,04,27,8.80
2011,07,09,04,28,8.80
2011,07,09,04,29,8.80
2011,07,09,04,30,8.80
2011,07,09,04,31,8.80
2011,07,09,04,32,8.80
2011,07,09,04,33,8.80
2011,07,09,04,34,8.80
2011,07,09,04,35,8.80
2011,07,09,04,36,8.80
2011,07,09,04,37,8.70
2011,07,09,04,38,8.70
2011,07,09,04,39,8.70
2011,07,09,04,40,8.70
2011,07,09,04,41,8.70
2011,07,09,04,42,8.70
2011,07,09,04,43,8.70
2011,07,09,04,44,8.70
2011,07,09,04,45,8.70
2011,07,09,04,46,8.70
2011,07,09,04,47,8.70
2011,07,09,04,48,8.70
2011,07,09,04,49,8.60
2011,07,09,04,50,8.60
2011,07,09,04,51,8.60
2011,07,09,04,52,8.60
2011,07,09,04,53,8.60
2011,07,09,04,54,8.60
2011,07,09,04,55,8.60
2011,07,09,04,56,8.60
2011,07,09,04,57,8.60
2011,07,09,04,58,8.60
2011,07,09,04,59,8.60
2011,07,09,05,00,8.60
2011,07,09,05,01,8.60
2011,07,09,05,02,8.60
2011,07,09,05,03,8.50
2011,07,09,05,04,8.50
2011,07,09,05,05,8.50
2011,07,09,05,06,8.50
2011,07,09,05,07,8.50
2011,07,09,05,08,8.50
2011,07,09,05,09,8.50
2011,07,09,05,10,8.50
2011,07,09,05,11,8.50
2011,07,09,05,12,8.50
2011,07,09,05,13,8.50
2011,07,09,05,14,8.50
2011,07,09,05,15,8.50
2011,07,09,05,16,8.50
2011,07,09,05,17,8.50
2011,07,09,05,18,8.50
2011,07,09,05,19,8.50
2011,07,09,05,20,8.50
2011,07,09,05,21,8.40
2011,07,09,05,22,8.40
2011,07,09,05,23,8.40
2011,07,09,05,24,8.40
2011,07,09,05,25,8.40
2011,07,09,05,26,8.40
2011,07,09,05,27,8.40
2011,07,09,05,28,8.40
2011,07,09,05,29,8.40
2011,07,09,05,30,8.40
2011,07,09,05,31,8.40
2011,07,09,05,32,8.40
2011,07,09,05,33,8.40
2011,07,09,05,34,8.40
2011,07,09,05,35,8.40
2011,07,09,05,36,8.40
2011,07,09,05,37,8.40
2011,07,09,05,38,8.40
2011,07,09,05,39,8.40
2011,07,09,05,40,8.40
2011,07,09,05,41,8.40
2011,07,09,05,42,8.40
2011,07,09,05,43,8.40
2011,07,09,05,44,8.40
2011,07,09,05,45,8.40
2011,07,09,05,46,8.40
2011,07,09,05,47,8.40
2011,07,09,05,48,8.40
2011,07,09,05,49,8.40
2011,07,09,05,50,8.40
2011,07,09,05,51,8.40
2011,07,09,05,52,8.40
2011,07,09,05,53,8.40
2011,07,09,05,54,8.40
2011,07,09,05,55,8.40
2011,07,09,05,56,8.40
2011,07,09,05,57,8.40
2011,07,09,05,58,8.40
2011,07,09,05,59,8.40
2011,07,09,06,00,8.40
2011,07,09,06,01,8.40
2011,07,09,06,02,8.40
2011,07,09,06,03,8.40
2011,07,09,06,04,8.40
2011,07,09,06,05,8.40
2011,07,09,06,06,8.40
2011,07,09,06,07,8.40
2011,07,09,06,08,8.40
2011,07,09,06,09,8.40
2011,07,09,06,10,8.40
2011,07,09,06,11,8.40
2011,07,09,06,12,8.40
2011,07,09,06,13,8.40
2011,07,09,06,14,8.40
2011,07,09,06,15,8.40
2011,07,09,06,16,8.40
2011,07,09,06,17,8.40
2011,07,09,06,18,8.40
2011,07,09,06,19,8.40
2011,07,09,06,20,8.40
2011,07,09,06,21,8.40
2011,07,09,06,22,8.40
2011,07,09,06,23,8.40
2011,07,09,06,24,8.40
2011,07,09,06,25,8.40
2011,07,09,06,26,8.40
2011,07,09,06,27,8.40
2011,07,09,06,28,8.40
2011,07,09,06,29,8.40
2011,07,09,06,30,8.40
2011,07,09,06,31,8.40
2011,07,09,06,32,8.50
2011,07,09,06,33,8.50
2011,07,09,06,34,8.50
2011,07,09,06,35,8.50
2011,07,09,06,36,8.50
2011,07,09,06,37,8.50
2011,07,09,06,38,8.60
2011,07,09,06,39,8.60
2011,07,09,06,40,8.60
2011,07,09,06,41,8.70
2011,07,09,06,42,8.70
2011,07,09,06,43,8.80
2011,07,09,06,44,8.90
2011,07,09,06,45,8.90
2011,07,09,06,46,9.00
2011,07,09,06,47,9.10
2011,07,09,06,48,9.20
2011,07,09,06,49,9.20
2011,07,09,06,50,9.30
2011,07,09,06,51,9.30
2011,07,09,06,52,9.40
2011,07,09,06,53,9.40
2011,07,09,06,54,9.40
2011,07,09,06,55,9.50
2011,07,09,06,56,9.50
2011,07,09,06,57,9.60
2011,07,09,06,58,9.60
2011,07,09,06,59,9.70
2011,07,09,07,00,9.70
2011,07,09,07,01,9.80
2011,07,09,07,02,9.80
2011,07,09,07,03,9.80
2011,07,09,07,04,9.80
2011,07,09,07,05,9.80
2011,07,09,07,06,9.90
2011,07,09,07,07,9.90
2011,07,09,07,08,10.00
2011,07,09,07,09,10.00
2011,07,09,07,10,10.10
2011,07,09,07,11,10.10
2011,07,09,07,12,10.10
2011,07,09,07,13,10.10
2011,07,09,07,14,10.10
2011,07,09,07,15,10.10
2011,07,09,07,16,10.20
2011,07,09,07,17,10.20
2011,07,09,07,18,10.20
2011,07,09,07,19,10.20
2011,07,09,07,20,10.30
2011,07,09,07,21,10.30
2011,07,09,07,22,10.40
2011,07,09,07,23,10.40
2011,07,09,07,24,10.50
2011,07,09,07,25,10.50
2011,07,09,07,26,10.60
2011,07,09,07,27,10.70
2011,07,09,07,28,10.80
2011,07,09,07,29,10.80
2011,07,09,07,30,10.90
2011,07,09,07,31,11.00
2011,07,09,07,32,11.10
2011,07,09,07,33,11.20
2011,07,09,07,34,11.30
2011,07,09,07,35,11.40
2011,07,09,07,36,11.40
2011,07,09,07,37,11.50
2011,07,09,07,38,11.60
2011,07,09,07,39,11.70
2011,07,09,07,40,11.70
2011,07,09,07,41,11.70
2011,07,09,07,42,11.70
2011,07,09,07,43,11.80
2011,07,09,07,44,11.80
2011,07,09,07,45,11.80
2011,07,09,07,46,11.80
2011,07,09,07,47,11.80
2011,07,09,07,48,11.80
2011,07,09,07,49,11.90
2011,07,09,07,50,11.90
2011,07,09,07,51,11.90
2011,07,09,07,52,11.90
2011,07,09,07,53,12.00
2011,07,09,07,54,12.00
2011,07,09,07,55,12.10
2011,07,09,07,56,12.10
2011,07,09,07,57,12.20
2011,07,09,07,58,12.20
2011,07,09,07,59,12.20
2011,07,09,08,00,12.20
2011,07,09,08,01,12.20
2011,07,09,08,02,12.20
2011,07,09,08,03,12.20
2011,07,09,08,04,12.20
2011,07,09,08,05,12.20
2011,07,09,08,06,12.30
2011,07,09,08,07,12.30
2011,07,09,08,08,12.30
2011,07,09,08,09,12.40
2011,07,09,08,10,12.40
2011,07,09,08,11,12.40
2011,07,09,08,12,12.40
2011,07,09,08,13,12.50
2011,07,09,08,14,12.50
2011,07,09,08,15,12.60
2011,07,09,08,16,12.60
2011,07,09,08,17,12.60
2011,07,09,08,18,12.70
2011,07,09,08,19,12.70
2011,07,09,08,20,12.70
2011,07,09,08,21,12.70
2011,07,09,08,22,12.70
2011,07,09,08,23,12.80
2011,07,09,08,24,12.80
2011,07,09,08,25,12.80
2011,07,09,08,26,12.90
2011,07,09,08,27,12.90
2011,07,09,08,28,12.90
2011,07,09,08,29,13.00
2011,07,09,08,30,13.00
2011,07,09,08,31,13.10
2011,07,09,08,32,13.10
2011,07,09,08,33,13.10
2011,07,09,08,34,13.20
2011,07,09,08,35,13.20
2011,07,09,08,36,13.20
2011,07,09,08,37,13.20
2011,07,09,08,38,13.20
2011,07,09,08,39,13.30
2011,07,09,08,40,13.30
2011,07,09,08,41,13.20
2011,07,09,08,42,13.10
2011,07,09,08,43,13.10
2011,07,09,08,44,13.00
2011,07,09,08,45,13.00
2011,07,09,08,46,13.10
2011,07,09,08,47,13.10
2011,07,09,08,48,13.10
2011,07,09,08,49,13.10
2011,07,09,08,50,13.10
2011,07,09,08,51,13.10
2011,07,09,08,52,13.10
2011,07,09,08,53,13.10
2011,07,09,08,54,13.10
2011,07,09,08,55,13.10
2011,07,09,08,56,13.10
2011,07,09,08,57,13.20
2011,07,09,08,58,13.30
2011,07,09,08,59,13.40
2011,07,09,09,00,13.50
2011,07,09,09,01,13.60
2011,07,09,09,02,13.70
2011,07,09,09,03,13.80
2011,07,09,09,04,13.80
2011,07,09,09,05,13.80
2011,07,09,09,06,13.80
2011,07,09,09,07,13.80
2011,07,09,09,08,13.80
2011,07,09,09,09,13.90
2011,07,09,09,10,13.90
2011,07,09,09,11,13.90
2011,07,09,09,12,13.90
2011,07,09,09,13,14.00
2011,07,09,09,14,14.00
2011,07,09,09,15,14.10
2011,07,09,09,16,14.00
2011,07,09,09,17,14.00
2011,07,09,09,18,13.90
2011,07,09,09,19,14.00
2011,07,09,09,20,14.00
2011,07,09,09,21,14.00
2011,07,09,09,22,14.10
2011,07,09,09,23,14.10
2011,07,09,09,24,14.20
2011,07,09,09,25,14.20
2011,07,09,09,26,14.20
2011,07,09,09,27,14.30
2011,07,09,09,28,14.40
2011,07,09,09,29,14.50
2011,07,09,09,30,14.50
2011,07,09,09,31,14.60
2011,07,09,09,32,14.60
2011,07,09,09,33,14.60
2011,07,09,09,34,14.60
2011,07,09,09,35,14.60
2011,07,09,09,36,14.60
2011,07,09,09,37,14.60
2011,07,09,09,38,14.60
2011,07,09,09,39,14.60
2011,07,09,09,40,14.70
2011,07,09,09,41,14.80
2011,07,09,09,42,14.90
2011,07,09,09,43,14.90
2011,07,09,09,44,15.00
2011,07,09,09,45,15.10
2011,07,09,09,46,15.20
2011,07,09,09,47,15.20
2011,07,09,09,48,15.30
2011,07,09,09,49,15.30
2011,07,09,09,50,15.30
2011,07,09,09,51,15.30
2011,07,09,09,52,15.30
2011,07,09,09,53,15.30
2011,07,09,09,54,15.40
2011,07,09,09,55,15.50
2011,07,09,09,56,15.60
2011,07,09,09,57,15.70
2011,07,09,09,58,15.70
2011,07,09,09,59,15.70
2011,07,09,10,00,15.70
2011,07,09,10,01,15.70
2011,07,09,10,02,15.70
2011,07,09,10,03,15.70
2011,07,09,10,04,15.70
2011,07,09,10,05,15.80
2011,07,09,10,06,15.90
2011,07,09,10,07,15.90
2011,07,09,10,08,16.00
2011,07,09,10,09,15.90
2011,07,09,10,10,15.90
2011,07,09,10,11,15.90
2011,07,09,10,12,15.90
2011,07,09,10,13,16.00
2011,07,09,10,14,16.00
2011,07,09,10,15,16.20
2011,07,09,10,16,16.20
2011,07,09,10,17,16.20
2011,07,09,10,18,16.20
2011,07,09,10,19,16.30
2011,07,09,10,20,16.40
2011,07,09,10,21,16.40
2011,07,09,10,22,16.50
2011,07,09,10,23,16.60
2011,07,09,10,24,16.70
2011,07,09,10,25,16.80
2011,07,09,10,26,16.80
2011,07,09,10,27,16.80
2011,07,09,10,28,16.90
2011,07,09,10,29,17.00
2011,07,09,10,30,17.10
2011,07,09,10,31,17.10
2011,07,09,10,32,17.10
2011,07,09,10,33,17.00
2011,07,09,10,34,17.00
2011,07,09,10,35,17.10
2011,07,09,10,36,17.20
2011,07,09,10,37,17.20
2011,07,09,10,38,17.20
2011,07,09,10,39,17.20
2011,07,09,10,40,17.20
2011,07,09,10,41,17.30
2011,07,09,10,42,17.30
2011,07,09,10,43,17.30
2011,07,09,10,44,17.30
2011,07,09,10,45,17.40
2011,07,09,10,46,17.40
2011,07,09,10,47,17.50
2011,07,09,10,48,17.70
2011,07,09,10,49,17.80
2011,07,09,10,50,18.00
2011,07,09,10,51,18.10
2011,07,09,10,52,18.20
2011,07,09,10,53,18.20
2011,07,09,10,54,18.20
2011,07,09,10,55,18.30
2011,07,09,10,56,18.30
2011,07,09,10,57,18.30
2011,07,09,10,58,18.30
2011,07,09,10,59,18.30
2011,07,09,11,00,18.20
2011,07,09,11,01,18.20
2011,07,09,11,02,18.20
2011,07,09,11,03,18.20
2011,07,09,11,04,18.20
2011,07,09,11,05,18.20
2011,07,09,11,06,18.10
2011,07,09,11,07,18.10
2011,07,09,11,08,18.10
2011,07,09,11,09,18.20
2011,07,09,11,10,18.30
2011,07,09,11,11,18.20
2011,07,09,11,12,18.20
2011,07,09,11,13,18.30
2011,07,09,11,14,18.30
2011,07,09,11,15,18.40
2011,07,09,11,16,18.40
2011,07,09,11,17,18.40
2011,07,09,11,18,18.50
2011,07,09,11,19,18.60
2011,07,09,11,20,18.60
2011,07,09,11,21,18.70
2011,07,09,11,22,18.70
2011,07,09,11,23,18.70
2011,07,09,11,24,18.70
2011,07,09,11,25,18.80
2011,07,09,11,26,18.80
2011,07,09,11,27,18.80
2011,07,09,11,28,18.80
2011,07,09,11,29,18.80
2011,07,09,11,30,18.90
2011,07,09,11,31,18.90
2011,07,09,11,32,18.90
2011,07,09,11,33,19.10
2011,07,09,11,34,19.20
2011,07,09,11,35,19.30
2011,07,09,11,36,19.50
2011,07,09,11,37,19.60
2011,07,09,11,38,19.70
2011,07,09,11,39,19.60
2011,07,09,11,40,19.50
2011,07,09,11,41,19.30
2011,07,09,11,42,19.20
2011,07,09,11,43,19.10
2011,07,09,11,44,19.10
2011,07,09,11,45,19.00
2011,07,09,11,46,19.00
2011,07,09,11,47,19.10
2011,07,09,11,48,19.10
2011,07,09,11,49,19.20
2011,07,09,11,50,19.30
2011,07,09,11,51,19.30
2011,07,09,11,52,19.40
2011,07,09,11,53,19.40
2011,07,09,11,54,19.50
2011,07,09,11,55,19.60
2011,07,09,11,56,19.50
2011,07,09,11,57,19.50
2011,07,09,11,58,19.60
2011,07,09,11,59,19.70
2011,07,09,12,00,19.80
2011,07,09,12,01,19.90
2011,07,09,12,02,20.00
2011,07,09,12,03,20.10
2011,07,09,12,04,20.20
2011,07,09,12,05,20.20
2011,07,09,12,06,20.10
2011,07,09,12,07,20.00
2011,07,09,12,08,20.00
2011,07,09,12,09,20.00
2011,07,09,12,10,20.10
2011,07,09,12,11,20.20
2011,07,09,12,12,20.40
2011,07,09,12,13,20.50
2011,07,09,12,14,20.60
2011,07,09,12,15,20.60
2011,07,09,12,16,20.60
2011,07,09,12,17,20.50
2011,07,09,12,18,20.50
2011,07,09,12,19,20.40
2011,07,09,12,20,20.30
2011,07,09,12,21,20.30
2011,07,09,12,22,20.20
2011,07,09,12,23,20.20
2011,07,09,12,24,20.20
2011,07,09,12,25,20.30
2011,07,09,12,26,20.40
2011,07,09,12,27,20.50
2011,07,09,12,28,20.60
2011,07,09,12,29,20.60
2011,07,09,12,30,20.70
2011,07,09,12,31,20.80
2011,07,09,12,32,20.80
2011,07,09,12,33,20.80
2011,07,09,12,34,21.00
2011,07,09,12,35,21.10
2011,07,09,12,36,21.20
2011,07,09,12,37,21.10
2011,07,09,12,38,21.00
2011,07,09,12,39,21.00
2011,07,09,12,40,20.90
2011,07,09,12,41,21.00
2011,07,09,12,42,21.00
2011,07,09,12,43,21.00
2011,07,09,12,44,21.10
2011,07,09,12,45,21.10
2011,07,09,12,46,21.20
2011,07,09,12,47,21.20
2011,07,09,12,48,21.20
2011,07,09,12,49,21.20
2011,07,09,12,50,21.20
2011,07,09,12,51,21.10
2011,07,09,12,52,21.10
2011,07,09,12,53,21.00
2011,07,09,12,54,21.00
2011,07,09,12,55,21.00
2011,07,09,12,56,21.00
2011,07,09,12,57,21.00
2011,07,09,12,58,20.90
2011,07,09,12,59,20.80
2011,07,09,13,00,20.80
2011,07,09,13,01,20.90
2011,07,09,13,02,21.00
2011,07,09,13,03,21.00
2011,07,09,13,04,21.00
2011,07,09,13,05,21.10
2011,07,09,13,06,21.00
2011,07,09,13,07,20.90
2011,07,09,13,08,20.80
2011,07,09,13,09,20.80
2011,07,09,13,10,20.80
2011,07,09,13,11,20.80
2011,07,09,13,12,20.80
2011,07,09,13,13,20.80
2011,07,09,13,14,20.70
2011,07,09,13,15,20.60
2011,07,09,13,16,20.60
2011,07,09,13,17,20.70
2011,07,09,13,18,20.70
2011,07,09,13,19,20.80
2011,07,09,13,20,20.90
2011,07,09,13,21,20.90
2011,07,09,13,22,20.90
2011,07,09,13,23,20.80
2011,07,09,13,24,20.80
2011,07,09,13,25,20.80
2011,07,09,13,26,20.80
2011,07,09,13,27,20.60
2011,07,09,13,28,20.50
2011,07,09,13,29,20.40
2011,07,09,13,30,20.30
2011,07,09,13,31,20.20
2011,07,09,13,32,20.20
2011,07,09,13,33,20.30
2011,07,09,13,34,20.40
2011,07,09,13,35,20.50
2011,07,09,13,36,20.60
2011,07,09,13,37,20.70
2011,07,09,13,38,20.80
2011,07,09,13,39,20.90
2011,07,09,13,40,20.90
2011,07,09,13,41,20.90
2011,07,09,13,42,20.90
2011,07,09,13,43,20.80
2011,07,09,13,44,20.80
2011,07,09,13,45,20.80
2011,07,09,13,46,20.80
2011,07,09,13,47,20.80
2011,07,09,13,48,20.80
2011,07,09,13,49,20.90
2011,07,09,13,50,21.00
2011,07,09,13,51,21.10
2011,07,09,13,52,21.20
2011,07,09,13,53,21.20
2011,07,09,13,54,21.30
2011,07,09,13,55,21.30
2011,07,09,13,56,21.40
2011,07,09,13,57,21.40
2011,07,09,13,58,21.30
2011,07,09,13,59,21.20
2011,07,09,14,00,21.20
2011,07,09,14,01,21.10
2011,07,09,14,02,21.10
2011,07,09,14,03,21.10
2011,07,09,14,04,21.00
2011,07,09,14,05,21.00
2011,07,09,14,06,20.90
2011,07,09,14,07,20.90
2011,07,09,14,08,21.00
2011,07,09,14,09,21.10
2011,07,09,14,10,21.10
2011,07,09,14,11,21.20
2011,07,09,14,12,21.20
2011,07,09,14,13,21.20
2011,07,09,14,14,21.30
2011,07,09,14,15,21.30
2011,07,09,14,16,21.40
2011,07,09,14,17,21.40
2011,07,09,14,18,21.50
2011,07,09,14,19,21.60
2011,07,09,14,20,21.70
2011,07,09,14,21,21.70
2011,07,09,14,22,21.70
2011,07,09,14,23,21.60
2011,07,09,14,24,21.50
2011,07,09,14,25,21.50
2011,07,09,14,26,21.60
2011,07,09,14,27,21.80
2011,07,09,14,28,21.90
2011,07,09,14,29,22.00
2011,07,09,14,30,22.10
2011,07,09,14,31,22.10
2011,07,09,14,32,22.00
2011,07,09,14,33,22.10
2011,07,09,14,34,22.10
2011,07,09,14,35,22.20
2011,07,09,14,36,22.10
2011,07,09,14,37,22.00
2011,07,09,14,38,22.00
2011,07,09,14,39,21.90
2011,07,09,14,40,21.90
2011,07,09,14,41,21.80
2011,07,09,14,42,21.70
2011,07,09,14,43,21.70
2011,07,09,14,44,21.70
2011,07,09,14,45,21.70
2011,07,09,14,46,21.70
2011,07,09,14,47,21.70
2011,07,09,14,48,21.80
2011,07,09,14,49,22.00
2011,07,09,14,50,22.20
2011,07,09,14,51,22.20
2011,07,09,14,52,22.20
2011,07,09,14,53,22.10
2011,07,09,14,54,22.10
2011,07,09,14,55,22.20
2011,07,09,14,56,22.20
2011,07,09,14,57,22.30
2011,07,09,14,58,22.30
2011,07,09,14,59,22.40
2011,07,09,15,00,22.30
2011,07,09,15,01,22.30
2011,07,09,15,02,22.30
2011,07,09,15,03,22.50
2011,07,09,15,04,22.50
2011,07,09,15,05,22.50
2011,07,09,15,06,22.50
2011,07,09,15,07,22.40
2011,07,09,15,08,22.40
2011,07,09,15,09,22.30
2011,07,09,15,10,22.30
2011,07,09,15,11,22.20
2011,07,09,15,12,22.10
2011,07,09,15,13,22.20
2011,07,09,15,14,22.10
2011,07,09,15,15,22.00
2011,07,09,15,16,22.00
2011,07,09,15,17,22.00
2011,07,09,15,18,22.20
2011,07,09,15,19,22.30
2011,07,09,15,20,22.30
2011,07,09,15,21,22.30
2011,07,09,15,22,22.40
2011,07,09,15,23,22.30
2011,07,09,15,24,22.30
2011,07,09,15,25,22.20
2011,07,09,15,26,22.20
2011,07,09,15,27,22.20
2011,07,09,15,28,22.20
2011,07,09,15,29,22.20
2011,07,09,15,30,22.20
2011,07,09,15,31,22.20
2011,07,09,15,32,22.10
2011,07,09,15,33,21.90
2011,07,09,15,34,21.70
2011,07,09,15,35,21.60
2011,07,09,15,36,21.60
2011,07,09,15,37,21.60
2011,07,09,15,38,21.60
2011,07,09,15,39,21.50
2011,07,09,15,40,21.40
2011,07,09,15,41,21.40
2011,07,09,15,42,21.40
2011,07,09,15,43,21.50
2011,07,09,15,44,21.60
2011,07,09,15,45,21.70
2011,07,09,15,46,21.80
2011,07,09,15,47,21.70
2011,07,09,15,48,21.70
2011,07,09,15,49,21.70
2011,07,09,15,50,21.80
2011,07,09,15,51,21.80
2011,07,09,15,52,21.70
2011,07,09,15,53,21.70
2011,07,09,15,54,21.60
2011,07,09,15,55,21.50
2011,07,09,15,56,21.60
2011,07,09,15,57,21.70
2011,07,09,15,58,21.80
2011,07,09,15,59,21.90
2011,07,09,16,00,21.90
2011,07,09,16,01,21.90
2011,07,09,16,02,21.80
2011,07,09,16,03,21.80
2011,07,09,16,04,21.80
2011,07,09,16,05,21.80
2011,07,09,16,06,21.90
2011,07,09,16,07,22.00
2011,07,09,16,08,22.00
2011,07,09,16,09,21.90
2011,07,09,16,10,21.80
2011,07,09,16,11,21.70
2011,07,09,16,12,21.80
2011,07,09,16,13,21.70
2011,07,09,16,14,21.60
2011,07,09,16,15,21.60
2011,07,09,16,16,21.60
2011,07,09,16,17,21.60
2011,07,09,16,18,21.60
2011,07,09,16,19,21.70
2011,07,09,16,20,21.80
2011,07,09,16,21,21.80
2011,07,09,16,22,21.70
2011,07,09,16,23,21.50
2011,07,09,16,24,21.40
2011,07,09,16,25,21.40
2011,07,09,16,26,21.40
2011,07,09,16,27,21.50
2011,07,09,16,28,21.60
2011,07,09,16,29,21.60
2011,07,09,16,30,21.70
2011,07,09,16,31,21.60
2011,07,09,16,32,21.50
2011,07,09,16,33,21.50
2011,07,09,16,34,21.60
2011,07,09,16,35,21.50
2011,07,09,16,36,21.50
2011,07,09,16,37,21.60
2011,07,09,16,38,21.50
2011,07,09,16,39,21.40
2011,07,09,16,40,21.40
2011,07,09,16,41,21.40
2011,07,09,16,42,21.50
2011,07,09,16,43,21.50
2011,07,09,16,44,21.60
2011,07,09,16,45,21.60
2011,07,09,16,46,21.60
2011,07,09,16,47,21.60
2011,07,09,16,48,21.60
2011,07,09,16,49,21.60
2011,07,09,16,50,21.70
2011,07,09,16,51,21.70
2011,07,09,16,52,21.80
2011,07,09,16,53,21.80
2011,07,09,16,54,21.80
2011,07,09,16,55,21.80
2011,07,09,16,56,21.70
2011,07,09,16,57,21.80
2011,07,09,16,58,21.90
2011,07,09,16,59,21.90
2011,07,09,17,00,22.00
2011,07,09,17,01,21.90
2011,07,09,17,02,21.90
2011,07,09,17,03,21.80
2011,07,09,17,04,21.80
2011,07,09,17,05,21.80
2011,07,09,17,06,21.80
2011,07,09,17,07,21.80
2011,07,09,17,08,21.80
2011,07,09,17,09,21.80
2011,07,09,17,10,21.70
2011,07,09,17,11,21.70
2011,07,09,17,12,21.60
2011,07,09,17,13,21.60
2011,07,09,17,14,21.60
2011,07,09,17,15,21.60
2011,07,09,17,16,21.60
2011,07,09,17,17,21.70
2011,07,09,17,18,21.80
2011,07,09,17,19,21.80
2011,07,09,17,20,21.90
2011,07,09,17,21,21.90
2011,07,09,17,22,21.80
2011,07,09,17,23,21.80
2011,07,09,17,24,21.80
2011,07,09,17,25,21.80
2011,07,09,17,26,21.80
2011,07,09,17,27,21.80
2011,07,09,17,28,21.80
2011,07,09,17,29,21.80
2011,07,09,17,30,21.90
2011,07,09,17,31,22.00
2011,07,09,17,32,22.00
2011,07,09,17,33,22.00
2011,07,09,17,34,22.00